TimeCET,TemperatureF,Dew PointF,Humidity,Sea Level PressureIn,VisibilityMPH,Wind Direction,Wind SpeedMPH,Gust SpeedMPH,PrecipitationIn,Events,Conditions,WindDirDegrees,DateUTC
12:00 AM,35.6,33.8,93,30.15,-9999.0,Calm,Calm,-,N/A,,Clear,0,2013-02-15 23:00:00
5:30 AM,32.0,32.0,100,30.12,-9999.0,Calm,Calm,-,N/A,,Clear,0,2013-02-16 04:30:00
6:00 AM,32.0,32.0,100,30.12,-9999.0,Calm,Calm,-,N/A,,Clear,0,2013-02-16 05:00:00
6:30 AM,32.0,32.0,100,30.12,-9999.0,Calm,Calm,-,N/A,,Clear,0,2013-02-16 05:30:00
7:00 AM,32.0,30.2,93,30.12,-9999.0,Calm,Calm,-,N/A,,Clear,0,2013-02-16 06:00:00
7:30 AM,32.0,32.0,100,30.12,-9999.0,Calm,Calm,-,N/A,,Clear,0,2013-02-16 06:30:00
8:00 AM,32.0,30.2,93,30.12,-9999.0,Calm,Calm,-,N/A,,Clear,0,2013-02-16 07:00:00
8:30 AM,32.0,32.0,100,30.12,-9999.0,Calm,Calm,-,N/A,,Clear,0,2013-02-16 07:30:00
9:00 AM,32.0,32.0,100,30.12,-9999.0,Calm,Calm,-,N/A,,Clear,0,2013-02-16 08:00:00
9:30 AM,33.8,33.8,100,30.12,-9999.0,Calm,Calm,-,N/A,,Clear,0,2013-02-16 08:30:00
10:00 AM,35.6,35.6,100,30.12,-9999.0,Calm,Calm,-,N/A,,Clear,0,2013-02-16 09:00:00
10:30 AM,39.2,35.6,87,30.12,-9999.0,Calm,Calm,-,N/A,,Clear,0,2013-02-16 09:30:00
11:00 AM,42.8,37.4,81,30.15,-9999.0,Calm,Calm,-,N/A,,Clear,0,2013-02-16 10:00:00
11:30 AM,41.0,35.6,81,30.15,-9999.0,Calm,Calm,-,N/A,,Clear,0,2013-02-16 10:30:00
12:30 PM,46.4,37.4,71,30.12,-9999.0,Variable,1.2,-,N/A,,Clear,0,2013-02-16 11:30:00
1:00 PM,46.4,37.4,71,30.12,-9999.0,Calm,Calm,-,N/A,,Clear,0,2013-02-16 12:00:00
1:30 PM,48.2,37.4,66,30.09,-9999.0,Calm,Calm,-,N/A,,Clear,0,2013-02-16 12:30:00
2:00 PM,50.0,39.2,66,30.09,-9999.0,NE,1.2,-,N/A,,Clear,50,2013-02-16 13:00:00
2:30 PM,51.8,39.2,62,30.06,-9999.0,Calm,Calm,-,N/A,,Clear,0,2013-02-16 13:30:00
3:00 PM,51.8,41.0,67,30.06,-9999.0,Calm,Calm,-,N/A,,Clear,0,2013-02-16 14:00:00
3:30 PM,51.8,41.0,67,30.04,-9999.0,Calm,Calm,-,N/A,,Clear,0,2013-02-16 14:30:00
4:30 PM,53.6,41.0,62,30.04,-9999.0,West,1.2,-,N/A,,Clear,280,2013-02-16 15:30:00
5:00 PM,53.6,41.0,62,30.04,-9999.0,Calm,Calm,-,N/A,,Clear,0,2013-02-16 16:00:00
5:30 PM,51.8,39.2,62,30.04,-9999.0,Calm,Calm,-,N/A,,Clear,0,2013-02-16 16:30:00
6:00 PM,51.8,41.0,67,30.04,-9999.0,Variable,2.3,-,N/A,,Clear,0,2013-02-16 17:00:00
6:30 PM,51.8,41.0,67,30.04,-9999.0,SSE,1.2,-,N/A,,Clear,150,2013-02-16 17:30:00
7:00 PM,50.0,41.0,71,30.04,-9999.0,SE,2.3,-,N/A,,Clear,130,2013-02-16 18:00:00
7:30 PM,48.2,42.8,82,30.04,-9999.0,South,2.3,-,N/A,,Clear,180,2013-02-16 18:30:00
8:00 PM,46.4,42.8,87,30.04,-9999.0,SSE,2.3,-,N/A,,Clear,160,2013-02-16 19:00:00
10:00 PM,42.8,39.2,87,30.04,-9999.0,SSE,2.3,-,N/A,,Clear,150,2013-02-16 21:00:00
10:30 PM,41.0,39.2,93,30.04,-9999.0,Calm,Calm,-,N/A,,Clear,0,2013-02-16 21:30:00
11:00 PM,41.0,39.2,93,30.04,-9999.0,Calm,Calm,-,N/A,,Clear,0,2013-02-16 22:00:00
11:30 PM,39.2,37.4,93,30.04,-9999.0,SSE,1.2,-,N/A,,Clear,160,2013-02-16 22:30:00